Theta_e
344 344 346 349 348 347 346 347 347 347 346 347 347 346 346 346 346 346 347 346 346 346 347 346 345 346 345 344 343 342 342 342 341 342 340 340 339 339 339 341 346 345 345 345 346 344 343 343 341 341 341 339 341 340 340 341 342 342 341 340 340 340 342 342 342 340 337 337 337 336 336 337 337 336 336 337 337 337 338 338 337 333 334 335 337
342 345 347 349 347 346 345 345 347 347 346 345 347 346 345 345 345 345 346 346 346 346 346 346 346 346 345 343 342 341 341 342 342 340 338 338 338 338 338 339 339 341 341 341 341 341 341 339 338 340 341 341 340 340 340 340 339 339 339 339 340 340 340 340 340 340 340 339 337 337 336 337 336 336 337 337 337 336 337 335 338 333 334 336 336
344 345 347 348 347 346 345 344 344 344 346 345 344 344 344 343 344 344 344 346 345 346 346 346 346 346 346 344 343 343 342 342 341 339 339 339 339 338 339 337 337 337 339 338 337 337 337 338 339 340 340 338 337 337 337 338 337 337 338 338 339 339 339 339 338 338 339 339 338 337 338 339 338 338 338 338 337 337 337 335 334 334 333 334 334
343 345 348 348 348 347 346 345 344 342 342 345 344 342 343 343 343 343 343 344 345 346 346 346 346 346 346 345 345 343 341 339 339 339 340 339 338 338 338 337 338 338 336 336 336 336 337 339 339 339 338 338 338 338 337 336 335 335 336 337 337 338 337 337 337 337 338 337 337 336 336 336 337 337 337 337 337 337 338 336 336 335 334 335 334
343 345 347 348 347 347 347 346 345 343 342 343 343 342 342 342 343 343 343 343 345 346 346 345 345 347 346 344 342 342 341 340 339 339 340 339 337 337 337 338 338 337 338 338 337 337 337 339 340 338 337 338 336 335 335 335 335 334 336 336 337 336 336 336 336 337 336 336 337 337 333 333 334 334 335 335 335 336 336 335 335 334 334 334 334
343 345 347 346 346 346 347 345 344 343 342 341 343 342 342 342 343 344 343 343 344 345 346 345 346 347 346 345 344 343 342 342 341 340 339 340 339 339 338 338 338 338 338 337 337 337 337 338 338 338 339 338 336 334 334 334 334 334 335 335 336 335 335 336 335 336 336 335 337 330 329 331 331 331 334 335 335 337 333 333 334 334 333 333 333
343 345 347 345 346 345 346 346 344 343 343 341 341 342 342 342 342 342 344 343 344 345 346 345 346 345 346 345 344 343 342 340 340 340 340 340 338 337 338 338 338 338 338 338 336 336 337 337 337 337 337 337 335 334 334 334 334 333 334 334 334 334 334 335 335 336 336 335 332 333 333 334 334 335 335 334 335 333 333 333 333 333 332 332 331
344 346 347 346 346 345 345 346 344 342 342 341 341 341 341 342 342 341 342 342 344 345 345 345 345 345 345 345 344 343 342 341 340 339 340 340 339 339 339 339 339 337 338 337 337 337 337 336 337 337 337 336 335 335 334 334 334 332 332 335 335 334 334 334 335 335 335 331 334 333 333 334 335 336 337 335 335 335 334 332 333 332 331 331 330
343 346 345 345 346 343 344 345 345 342 343 341 341 342 342 341 341 341 342 342 344 346 345 345 345 346 344 345 344 343 343 342 342 341 340 339 339 338 339 339 339 338 337 337 337 337 337 335 337 337 337 336 335 335 335 335 335 334 332 334 335 334 334 334 335 334 332 330 331 332 332 333 333 334 335 335 335 334 333 333 334 332 331 332 330
344 345 345 345 346 343 343 344 345 342 342 341 343 343 343 345 344 344 344 342 344 346 346 345 345 345 345 345 344 343 343 342 340 340 340 340 339 339 339 339 338 338 337 338 337 337 337 336 336 336 336 335 335 335 335 336 335 333 333 335 334 334 334 333 332 334 331 330 330 333 334 339 333 333 333 335 336 334 334 333 334 334 335 332 332
344 344 345 346 347 341 343 344 345 342 342 341 343 344 344 345 345 345 345 342 345 346 346 345 345 345 345 345 345 344 344 343 342 340 339 339 340 340 339 339 338 338 337 337 337 337 336 336 337 336 335 335 335 335 335 335 336 335 333 335 335 334 333 332 334 329 331 330 330 332 332 333 334 336 335 334 334 334 332 332 333 333 333 333 333
343 344 346 346 346 340 342 343 344 343 342 342 344 344 345 345 345 345 344 343 345 346 346 346 345 345 345 345 345 344 343 343 342 342 341 341 340 339 339 339 338 337 337 337 336 336 336 336 336 336 335 335 335 335 334 334 336 336 334 335 335 333 332 331 331 330 332 331 331 332 332 330 332 337 336 337 336 335 332 334 334 334 334 333 334
342 342 344 346 346 339 340 341 343 343 343 342 344 344 345 345 345 345 346 345 345 345 346 346 346 346 345 345 345 344 344 343 343 342 342 341 341 340 340 339 338 337 337 337 337 337 336 336 336 335 335 335 335 335 335 335 336 335 336 336 334 333 332 330 328 329 329 331 330 331 330 333 334 335 337 337 337 337 335 334 333 334 335 335 334
341 342 344 345 345 343 339 340 341 342 343 344 346 344 345 345 344 346 346 345 345 345 346 346 346 346 345 346 345 345 344 343 343 342 341 341 340 340 338 338 338 337 336 337 337 336 336 335 336 335 335 335 335 334 334 335 336 336 336 335 333 332 330 333 331 330 330 329 329 329 331 332 334 334 335 337 337 336 335 334 334 335 334 335 333
341 342 343 344 345 344 341 338 339 340 342 343 343 346 345 344 344 345 345 345 345 345 345 346 346 346 346 345 345 344 343 343 343 342 341 341 340 340 340 339 339 338 337 337 337 337 336 336 335 336 335 334 334 334 334 333 333 334 334 334 333 331 328 329 328 331 329 329 329 329 330 332 333 333 334 336 335 334 335 334 335 335 334 335 334
342 342 344 343 344 344 343 341 337 337 338 339 340 344 345 344 344 345 345 345 345 345 345 345 346 346 346 345 345 345 344 343 343 343 341 341 340 339 339 339 339 338 337 336 336 336 336 335 336 335 335 335 334 334 334 333 332 331 331 332 332 330 328 329 332 331 330 331 330 329 329 330 331 332 333 335 334 333 332 332 333 334 334 334 334
341 343 343 342 344 344 343 343 340 335 336 336 337 339 344 345 344 345 346 346 345 345 346 345 345 345 345 346 346 346 344 344 343 343 340 341 340 340 340 339 338 338 338 337 336 336 336 335 335 336 335 335 334 334 334 334 332 330 330 329 330 327 328 327 331 332 330 331 331 330 330 330 331 332 333 334 333 334 334 334 334 334 334 335 334
341 342 341 342 342 343 343 343 343 341 342 338 334 335 338 341 341 343 344 344 345 344 344 345 345 345 345 344 344 345 345 345 344 342 339 340 340 338 338 339 338 338 337 337 337 337 336 336 336 336 336 335 334 334 334 334 333 331 330 330 327 325 325 324 331 331 331 333 331 332 331 334 331 332 333 333 334 334 334 335 334 334 334 335 335
340 340 341 341 341 342 342 343 342 342 342 340 340 341 333 336 338 340 341 341 342 341 341 341 341 342 340 340 342 343 342 342 341 340 338 338 339 336 334 338 338 338 337 337 337 336 336 336 335 336 336 335 335 335 334 334 334 332 330 329 326 325 321 326 329 330 330 330 331 331 331 334 334 333 333 333 333 335 335 335 335 335 333 331 332
339 339 339 341 341 341 342 342 342 342 342 341 341 340 335 332 334 336 337 338 338 338 337 337 336 336 336 337 338 342 341 342 339 342 336 336 338 336 333 335 339 338 337 337 336 336 336 336 335 336 335 336 335 335 335 335 334 333 331 328 326 323 328 328 329 329 329 328 330 329 332 332 333 334 334 334 334 335 335 335 334 334 334 333 334
336 337 339 339 341 340 341 341 342 342 342 342 341 341 339 332 332 331 332 334 336 335 335 333 331 330 332 332 335 344 345 345 344 345 337 342 332 329 330 333 337 339 339 338 337 336 336 336 336 336 335 335 336 335 334 333 332 330 328 326 325 332 332 332 330 329 328 328 329 330 330 330 331 333 334 334 335 335 335 334 334 335 334 335 335
333 335 337 339 339 339 340 341 341 342 341 342 342 342 342 336 341 342 342 339 335 334 339 343 343 344 330 340 343 343 343 344 344 342 343 342 338 327 328 330 334 336 337 339 339 338 337 336 336 336 336 336 334 335 334 328 326 327 324 321 330 330 330 330 331 329 329 329 328 329 328 328 330 332 333 334 335 334 334 334 334 335 335 335 334
332 333 335 337 338 339 339 339 340 341 342 342 342 341 340 339 339 339 338 335 339 340 341 342 343 342 342 342 342 342 343 343 343 342 343 332 340 326 327 328 331 332 334 335 336 336 337 338 337 337 336 333 336 336 335 335 334 324 324 329 330 329 328 328 329 329 330 330 330 328 326 327 329 331 332 333 334 335 334 334 334 334 334 335 334
333 334 334 336 337 337 338 339 340 341 341 341 341 339 339 338 337 337 336 337 339 340 340 341 341 342 341 340 341 341 342 342 341 339 339 341 339 325 323 325 326 328 328 333 334 333 332 334 334 332 334 335 336 335 334 335 333 331 331 330 330 329 328 328 328 328 329 329 330 328 327 327 328 329 331 332 333 333 333 333 333 334 334 334 334
334 335 334 334 335 336 337 338 339 340 341 340 339 338 338 337 336 335 335 335 336 339 338 339 340 340 341 339 340 340 341 340 341 341 340 340 341 340 339 339 339 339 329 339 337 338 336 337 337 335 336 335 335 334 334 333 332 332 330 330 329 329 329 328 327 327 328 328 330 327 325 326 329 331 332 332 332 333 333 334 334 334 335 334 334
333 332 333 334 334 335 336 337 338 338 338 338 338 337 336 336 335 335 334 335 335 336 337 337 338 338 340 339 339 339 339 339 339 340 339 339 339 338 338 339 338 338 337 337 336 336 336 336 335 335 335 335 334 334 333 332 331 331 331 331 330 330 330 330 329 328 328 328 329 325 324 324 326 330 333 333 332 332 333 333 334 334 334 334 334
330 331 333 333 334 334 335 337 336 337 337 338 338 337 336 336 335 335 334 334 334 333 334 336 336 337 338 339 338 337 337 337 338 338 338 338 337 337 337 338 337 336 337 336 336 336 335 335 335 334 334 333 333 333 332 332 331 331 330 330 331 330 330 330 330 330 330 330 328 324 324 325 327 330 333 334 334 334 333 333 333 334 335 334 334
332 331 332 333 333 334 335 335 336 336 336 337 336 335 335 335 335 332 334 332 331 332 331 333 335 336 338 337 336 336 337 336 336 335 335 337 335 336 336 336 336 336 336 336 334 334 334 334 333 333 332 332 331 331 331 331 330 329 329 329 329 329 329 329 329 330 330 330 330 326 323 324 324 326 329 332 334 335 334 334 333 333 333 334 334
331 332 333 333 334 334 335 335 335 335 336 336 335 335 335 335 334 334 333 331 333 332 332 333 333 334 335 338 338 334 334 335 336 336 335 334 335 336 335 335 335 335 335 335 334 333 333 333 332 332 332 332 331 330 330 330 330 330 329 329 328 328 328 327 327 328 329 329 329 327 322 322 323 325 328 332 333 335 335 335 336 335 334 334 334
332 332 333 334 334 335 335 335 335 335 335 335 335 334 334 334 333 334 334 333 333 332 332 331 333 334 333 334 336 336 334 333 334 335 336 336 335 334 334 334 334 335 335 334 334 333 332 332 332 331 332 331 331 330 330 329 329 329 329 328 328 328 328 327 327 327 327 328 328 328 322 321 323 324 326 329 331 333 334 335 335 335 335 334 334
332 332 333 334 335 334 335 335 335 336 336 334 334 334 334 334 334 334 334 333 333 333 332 332 332 333 333 334 334 334 334 335 333 332 333 334 335 334 332 333 333 335 335 334 334 333 331 331 331 330 330 330 330 330 330 329 330 329 329 329 328 327 328 329 328 327 326 325 326 327 327 323 322 324 326 328 330 332 333 334 334 335 335 335 334
332 332 333 335 334 334 334 335 335 336 335 334 334 334 334 334 335 334 334 334 333 332 331 331 330 332 333 333 333 332 332 332 334 333 332 331 332 333 332 332 331 333 334 335 334 335 334 332 331 330 330 329 329 328 329 327 327 327 327 327 328 328 329 328 328 327 326 326 326 326 327 327 323 322 324 325 327 328 330 332 333 334 334 335 335
333 333 334 335 334 334 334 334 335 335 334 334 334 334 334 334 334 334 334 333 333 332 331 331 331 332 332 332 331 332 331 330 331 332 332 332 331 332 331 331 331 332 333 334 334 335 334 333 333 332 332 331 329 328 330 328 327 327 328 328 328 328 328 328 329 327 326 326 327 327 327 327 328 324 322 321 323 326 329 330 331 332 333 334 335
332 333 333 333 333 334 334 335 334 334 334 334 335 334 334 335 334 333 333 333 332 331 331 331 331 330 331 331 331 330 330 330 330 330 331 330 331 331 331 331 332 332 331 331 330 332 331 331 330 330 326 328 327 328 327 327 327 328 327 328 328 327 328 328 327 327 328 328 328 328 327 327 327 328 328 322 320 323 326 328 329 330 331 331 332
332 332 331 332 332 333 333 332 333 334 334 334 334 335 335 335 334 334 333 333 332 332 331 331 331 331 331 330 331 330 330 330 330 330 330 329 329 329 330 331 333 334 333 332 330 329 329 329 329 328 329 328 328 328 328 326 326 326 327 327 328 329 328 327 328 327 328 328 328 327 328 327 327 328 328 328 323 322 323 325 328 329 328 329 330
331 331 332 331 331 332 333 332 333 333 334 333 334 334 334 334 334 330 333 334 332 332 332 331 331 331 330 330 331 330 330 330 329 329 328 329 329 328 329 330 331 331 330 330 329 328 328 328 328 329 326 326 327 327 328 327 327 325 327 328 328 328 328 328 327 328 328 328 327 327 327 327 327 327 323 327 326 325 323 324 326 326 326 326 328
329 330 330 330 330 331 331 331 332 332 333 333 334 334 334 334 333 334 333 333 332 332 332 332 331 330 330 330 330 329 329 330 330 329 328 329 329 329 329 330 331 329 329 329 328 328 328 327 327 328 328 325 326 326 326 326 326 327 327 327 328 328 327 327 327 327 328 327 326 327 327 327 327 319 327 327 327 326 323 320 323 324 324 324 325
329 328 329 329 329 330 331 331 332 332 333 333 333 333 333 333 333 333 332 331 332 331 332 331 331 330 330 329 330 329 329 330 329 329 329 329 329 329 329 330 329 329 328 328 327 328 328 327 326 327 328 327 325 325 325 326 326 326 326 327 328 328 327 327 327 323 326 325 326 326 327 327 327 327 327 327 327 326 326 323 320 320 320 321 322
329 328 328 328 329 329 329 330 329 331 332 332 333 333 332 332 332 332 332 331 331 331 331 331 331 330 329 330 330 330 329 330 329 329 329 329 329 329 329 330 330 329 328 327 327 327 327 327 326 326 328 328 326 326 325 326 325 325 325 326 326 326 327 327 327 326 326 327 326 325 327 327 327 327 327 327 327 327 326 326 325 326 325 318 319
329 329 328 328 328 328 328 329 328 329 331 331 331 331 331 330 329 330 329 329 330 330 331 330 331 330 330 330 330 330 330 330 330 330 330 329 329 329 329 329 329 329 328 326 326 326 326 326 326 325 325 326 328 327 326 326 324 324 323 324 325 326 326 326 327 327 327 328 328 328 327 328 327 327 327 327 327 326 326 325 325 324 325 322 318
329 328 328 328 328 328 328 327 328 328 328 328 329 329 328 328 329 328 327 329 329 330 330 331 331 331 332 331 330 330 331 331 330 331 329 326 328 329 329 329 329 328 327 326 327 327 327 327 326 326 324 323 324 326 327 327 323 321 323 323 324 326 326 327 327 327 328 328 328 328 328 327 328 327 327 327 325 326 326 325 325 325 325 326 324
325 327 327 327 328 328 328 328 328 327 327 328 328 328 329 329 328 328 329 329 329 328 329 330 330 331 332 332 331 331 332 331 330 331 330 330 328 328 329 329 329 329 328 328 328 325 327 326 326 324 326 324 323 325 326 326 319 318 318 319 322 324 326 326 327 327 328 328 328 328 328 327 327 327 326 326 326 326 326 325 325 325 325 325 325
322 324 326 327 328 328 328 328 328 328 327 327 328 328 329 330 329 329 330 330 332 332 331 331 331 330 330 331 331 332 332 332 332 331 330 330 329 329 329 329 329 329 328 327 327 326 326 325 325 324 323 325 324 326 326 325 320 322 321 318 316 317 323 323 325 325 325 326 326 326 327 326 326 326 326 325 324 324 324 324 325 325 325 325 325
319 320 321 323 325 326 327 327 328 328 328 327 326 329 330 330 331 330 330 329 328 329 330 330 330 329 328 330 331 331 332 332 332 332 330 330 331 330 330 330 329 329 329 327 327 326 327 326 326 325 324 321 323 323 326 325 323 320 315 317 317 316 312 319 318 323 324 324 325 324 323 322 323 324 324 323 323 323 324 325 325 325 325 325 325
319 318 318 320 322 325 327 328 327 327 328 328 326 327 328 328 328 328 328 327 328 326 327 326 327 328 328 329 330 332 332 331 332 331 331 330 331 330 330 330 330 329 329 328 327 327 328 327 327 325 324 322 321 323 324 326 324 324 320 317 316 315 315 320 319 319 323 322 321 321 322 322 323 322 323 322 323 323 325 325 326 326 326 325 325
318 317 317 318 319 322 325 328 328 328 328 328 328 327 326 326 325 324 323 322 322 324 323 324 326 327 327 330 331 331 331 331 331 331 331 330 331 330 330 330 330 330 329 328 328 328 328 327 327 326 325 325 323 322 322 325 325 324 324 322 321 317 316 318 316 313 320 321 322 324 323 323 323 323 323 322 323 324 324 324 325 325 326 326 325
318 317 317 318 319 320 323 326 327 328 329 329 328 326 326 326 325 325 325 325 324 326 327 328 329 330 330 329 330 331 331 331 331 331 331 331 330 330 330 330 330 329 329 328 327 328 328 328 328 327 326 325 325 321 321 322 324 324 324 324 322 322 321 317 313 316 312 318 321 321 322 323 323 323 322 322 323 323 324 325 325 325 326 326 326
321 320 318 318 319 320 322 324 326 326 328 329 328 326 325 325 325 325 325 326 326 326 328 328 330 330 330 330 330 330 331 331 331 331 331 331 330 330 330 330 329 329 328 328 327 328 328 329 328 327 327 326 325 322 321 322 320 320 323 322 322 323 323 322 321 315 313 311 315 319 320 322 324 323 322 322 322 323 324 325 325 325 325 326 325
322 321 320 320 321 322 323 324 325 326 327 328 327 327 325 325 326 326 325 326 327 328 328 328 327 329 328 328 328 329 330 330 331 331 331 331 329 329 330 330 329 329 328 328 328 328 328 327 327 326 325 325 325 324 323 322 322 321 321 320 321 321 321 321 321 320 314 313 313 315 317 321 320 321 321 322 322 324 324 324 324 325 325 325 325
320 321 321 322 323 323 323 322 323 325 327 329 328 328 327 325 326 326 326 327 327 327 328 327 327 327 327 327 327 327 328 329 330 330 331 331 331 330 329 330 329 329 327 328 328 328 328 327 327 327 326 324 325 324 323 323 323 323 323 321 319 318 319 318 318 318 318 316 312 313 316 316 315 319 322 322 323 324 324 325 325 325 325 325 325
319 319 320 321 322 323 322 322 323 324 326 328 328 328 328 327 326 327 327 327 328 327 326 326 327 327 326 327 328 328 328 329 330 329 330 331 330 330 329 329 330 329 328 328 328 327 327 327 326 326 325 324 324 324 323 323 323 322 322 322 321 319 317 316 316 317 316 314 314 314 316 318 318 317 321 324 323 324 325 325 325 325 325 324 325
Wind_Speed
12 12 12 14 12 13 12 12 12 11 12 13 11 11 11 10 10 11 10 10 10 10 9 10 10 10 10 10 9 9 9 9 9 10 9 10 9 10 11 12 13 13 13 13 13 12 13 12 12 13 12 12 12 13 12 12 13 13 14 13 13 12 13 14 15 14 12 12 12 13 12 12 13 13 13 13 13 12 8 8 7 10 9 10 12
16 13 12 13 13 12 12 12 12 11 9 10 13 12 10 10 9 8 11 9 9 9 9 9 9 10 10 10 10 9 9 9 9 9 10 10 10 10 10 10 10 12 12 12 12 11 12 11 12 11 11 12 13 12 12 11 11 11 11 11 12 12 12 13 13 12 13 13 13 13 12 13 12 12 12 12 12 11 7 8 7 7 8 11 12
15 13 12 14 13 12 12 12 11 10 10 8 8 11 10 10 9 7 8 9 9 9 9 9 8 9 10 10 10 9 9 9 9 8 8 10 11 9 11 11 9 9 9 10 10 10 10 11 11 11 12 12 11 12 11 11 10 11 11 12 12 12 12 12 12 12 12 11 12 12 14 14 13 12 12 12 12 11 8 9 9 9 8 10 10
15 12 12 13 12 11 12 12 11 10 10 9 8 7 10 10 9 9 8 7 8 8 9 9 9 8 9 10 9 9 9 9 9 8 8 10 9 7 10 11 10 10 10 10 10 10 11 11 12 11 12 12 11 12 11 9 9 9 10 11 11 11 11 11 11 11 9 7 4 8 7 9 10 12 12 12 12 11 8 11 11 12 11 11 11
14 12 12 13 12 11 10 12 11 10 9 10 9 7 9 9 9 9 8 6 8 8 9 9 9 8 9 9 9 9 9 9 9 9 9 10 9 9 9 10 10 11 11 10 11 10 11 12 12 11 12 11 10 10 9 9 8 8 9 9 10 11 10 10 10 10 8 5 6 2 7 8 7 11 10 11 10 9 9 10 10 10 10 9 10
13 12 11 11 11 11 9 11 10 10 8 9 9 8 8 8 8 8 7 6 7 8 10 10 8 9 9 9 9 9 9 8 9 9 8 9 9 8 9 9 10 11 10 9 10 11 10 11 10 10 10 10 9 8 8 8 8 8 8 9 9 10 10 9 8 7 4 1 2 6 6 6 7 7 10 10 9 5 8 9 9 8 8 9 8
13 11 10 10 9 11 9 9 10 10 9 9 9 9 9 8 8 8 8 6 6 7 9 9 9 9 9 9 9 9 9 8 8 8 7 8 9 8 8 9 9 8 10 10 8 10 10 9 9 9 9 9 8 7 7 7 7 8 8 9 9 9 9 8 8 5 3 5 5 5 6 6 6 5 9 8 8 8 7 8 8 8 8 7 6
11 9 10 9 9 11 8 9 9 9 10 9 10 10 9 9 8 8 8 7 6 7 8 9 9 9 9 9 9 9 9 9 9 8 8 8 8 8 8 9 9 8 8 9 10 10 9 9 9 8 8 8 7 7 6 6 7 8 8 8 8 8 8 7 6 4 6 4 3 4 5 6 7 4 8 7 7 7 7 6 6 7 6 6 4
11 10 10 9 8 13 8 9 8 10 10 10 10 10 10 9 9 8 8 7 6 7 8 9 9 8 10 10 9 9 9 9 9 8 8 8 8 7 8 9 8 8 7 8 9 9 9 8 8 7 7 7 6 6 5 6 7 7 7 7 7 7 6 6 4 3 3 4 5 4 5 6 4 5 7 6 7 7 5 3 7 6 5 4 1
11 10 9 9 9 10 9 7 8 10 10 10 10 10 10 10 10 9 8 7 6 6 8 10 11 10 10 10 10 9 9 8 8 8 8 8 8 8 8 8 8 7 7 7 8 9 8 7 7 7 6 6 6 5 4 5 7 7 7 6 6 6 6 5 2 3 3 3 5 5 4 8 4 4 6 5 6 6 6 7 8 7 5 0 2
12 10 9 8 11 8 7 7 6 9 10 10 10 10 9 10 10 9 8 7 5 6 8 10 10 11 10 10 10 9 8 8 8 8 8 8 8 8 8 8 8 8 8 7 7 8 7 7 7 6 6 5 5 4 3 5 8 7 7 6 6 5 4 2 7 2 2 3 3 4 5 4 3 3 5 3 4 5 3 2 1 1 0 2 2
12 11 10 8 11 6 7 7 6 9 10 10 9 8 9 9 9 8 8 7 6 7 7 9 10 10 10 10 9 9 8 8 8 8 8 8 8 8 8 8 7 8 7 7 7 7 7 7 6 6 5 5 5 4 3 4 7 7 7 6 6 5 3 1 3 2 1 1 2 1 2 2 3 5 4 2 3 2 2 2 1 1 2 2 1
12 11 10 9 11 7 7 7 7 8 9 10 8 8 8 8 8 8 7 7 7 7 7 8 9 10 10 10 10 9 9 8 8 8 8 8 8 8 8 8 8 8 8 7 7 7 7 7 6 6 5 5 4 5 4 3 4 6 6 5 5 5 3 2 1 1 1 1 0 3 1 1 1 5 2 3 3 3 2 1 1 1 1 1 1
12 12 11 10 9 10 8 7 7 7 8 7 8 8 9 8 8 8 8 8 7 7 7 7 8 9 10 10 9 9 9 9 8 8 8 8 8 8 8 8 7 7 7 7 6 6 6 7 6 6 5 5 5 5 5 4 4 4 5 5 4 4 3 4 2 1 1 1 1 2 2 2 1 5 5 4 4 3 3 2 2 2 1 0 0
12 13 12 11 10 11 9 8 8 8 8 6 4 7 9 8 8 8 9 8 7 7 7 7 8 9 9 9 9 9 9 9 8 8 7 7 7 7 7 8 7 7 7 7 7 6 6 6 6 6 5 5 5 5 5 5 4 4 4 4 4 3 4 2 2 1 1 1 2 2 3 3 4 4 6 6 4 3 2 2 1 2 1 2 2
13 12 11 11 11 10 10 9 9 8 8 7 5 6 8 8 7 7 7 8 7 7 6 6 8 9 10 10 10 9 9 8 8 6 5 5 7 7 7 7 7 7 6 6 7 7 6 6 6 6 6 6 6 5 5 5 5 4 3 3 2 2 2 6 2 2 2 2 1 3 3 3 1 4 6 6 5 4 3 3 4 4 4 4 4
12 12 11 11 11 10 10 10 10 9 8 8 6 5 6 7 6 5 6 5 6 6 5 6 7 9 8 8 8 8 9 8 7 6 6 5 7 6 6 7 7 7 7 7 6 7 6 6 6 6 6 6 6 5 5 5 4 4 4 3 1 1 1 5 4 3 3 1 3 3 2 3 2 4 6 7 5 5 5 5 5 5 6 7 6
12 12 12 11 11 10 10 10 10 10 9 8 7 6 4 5 5 6 5 4 3 4 3 3 4 5 5 6 7 7 7 7 7 7 6 6 6 6 5 6 7 6 6 6 6 6 6 6 6 6 6 6 5 5 5 5 5 4 3 2 1 1 1 5 5 4 4 3 4 4 4 2 1 6 8 9 8 8 8 8 9 8 8 8 8
12 13 12 12 12 11 10 10 10 10 10 9 8 8 6 5 5 6 6 4 4 4 4 3 3 3 4 5 6 6 6 5 6 7 7 7 6 6 5 4 6 6 6 6 6 6 6 5 5 5 6 5 5 4 4 4 5 5 4 2 2 1 1 5 5 4 4 5 5 4 4 2 5 7 9 9 10 11 10 9 10 10 9 9 9
10 12 12 12 11 11 10 10 10 11 10 9 9 9 8 7 5 5 6 5 4 3 4 5 4 4 5 5 6 7 7 8 6 7 8 7 6 7 7 5 5 7 6 6 6 6 6 6 5 6 5 5 5 4 3 4 5 5 4 3 2 3 5 5 5 5 5 5 5 5 2 2 7 10 10 11 11 11 11 11 11 11 11 10 11
8 11 12 11 12 12 13 10 11 12 11 10 8 9 7 8 5 4 5 4 4 3 2 3 3 5 6 7 7 9 10 9 8 9 8 8 8 6 5 6 5 5 6 7 7 6 6 6 6 6 6 5 4 3 3 2 4 4 4 4 0 4 4 5 5 5 5 5 5 6 0 4 8 10 12 12 13 13 13 13 13 13 13 12 12
9 9 12 12 12 12 12 12 10 12 11 9 8 7 6 6 8 7 7 7 8 6 5 6 7 8 6 6 8 8 8 7 7 8 7 8 7 6 5 5 5 5 3 3 4 5 6 7 6 6 6 6 6 5 5 5 3 2 3 2 4 5 5 5 5 6 6 6 6 6 1 5 9 11 12 13 14 14 14 14 14 14 14 14 13
10 9 10 13 11 10 12 13 12 11 12 10 7 8 8 7 7 7 7 8 10 10 9 8 9 9 8 7 7 7 7 7 7 3 5 2 2 5 3 3 3 3 3 2 2 2 1 2 2 1 1 2 6 5 4 4 3 8 6 5 5 5 6 7 6 6 6 6 6 3 4 7 10 12 13 14 14 14 15 14 14 14 15 15 15
12 10 9 9 11 10 12 12 12 11 11 9 8 8 8 8 7 6 6 6 8 9 10 10 9 9 9 8 7 8 7 7 5 1 3 7 6 5 3 3 4 4 3 5 6 4 2 4 3 2 5 7 6 5 5 5 5 6 5 5 5 5 6 5 5 5 6 7 7 5 6 9 11 12 14 15 15 16 15 15 15 15 16 15 16
10 10 9 10 12 12 10 11 10 10 10 9 8 8 8 7 7 7 7 6 6 7 8 9 9 9 9 8 7 7 7 7 7 7 7 7 8 7 6 7 8 8 8 7 7 5 6 7 6 6 7 6 6 6 6 6 6 6 6 6 6 6 6 7 7 6 6 6 7 5 9 10 11 13 14 15 16 17 17 17 18 17 17 17 17
9 10 12 10 11 11 11 10 11 11 11 10 9 8 8 8 8 8 7 7 7 7 8 8 8 10 9 9 8 8 8 8 8 8 8 7 7 7 7 7 7 7 6 7 7 6 7 7 7 7 7 6 6 6 5 6 6 7 7 7 7 7 7 7 7 7 8 8 8 7 9 11 13 14 15 16 17 18 18 18 18 19 19 18 18
11 12 11 11 11 12 12 11 10 11 12 11 8 8 8 8 8 8 8 8 7 8 8 8 8 9 10 9 8 8 8 9 8 9 9 7 8 8 7 7 7 7 8 7 7 8 7 7 7 7 7 6 6 7 6 6 6 7 7 8 8 8 7 7 8 8 8 9 10 8 11 15 16 16 16 17 18 18 19 19 19 20 20 19 19
10 11 10 10 11 13 13 12 12 11 10 11 11 9 9 9 8 8 8 9 8 8 8 8 8 8 9 9 8 8 9 8 8 9 10 9 9 8 8 7 7 7 7 7 7 8 7 7 8 8 9 8 8 8 7 7 7 7 7 8 9 8 7 7 8 8 8 9 10 9 9 14 16 17 17 17 18 19 19 20 21 21 21 21 21
11 11 10 10 11 11 13 14 13 13 11 11 11 10 9 9 9 9 9 9 9 8 8 8 8 8 9 9 9 10 9 9 9 9 9 9 9 9 9 9 8 8 7 7 7 7 7 7 7 7 8 8 8 9 9 9 8 9 9 9 8 8 7 7 7 7 9 9 9 10 8 11 16 17 18 18 18 18 19 20 21 21 21 22 21
11 10 10 10 10 11 13 14 14 13 12 11 11 11 10 10 10 10 9 9 9 9 9 8 7 7 8 9 10 10 10 9 9 8 8 9 10 10 9 9 9 8 8 8 7 7 7 7 8 8 8 9 9 8 8 9 9 8 8 8 8 8 8 8 8 8 8 8 8 9 11 13 16 18 19 18 18 18 19 19 20 20 21 22 22
10 11 11 9 9 10 12 13 13 12 11 12 12 12 11 11 10 10 9 9 9 9 9 9 8 7 8 8 10 11 10 10 10 10 9 9 9 9 9 9 9 8 8 9 8 9 9 9 9 8 8 9 9 8 8 9 9 9 9 10 10 10 8 9 10 9 8 7 8 9 11 13 14 16 18 20 20 19 19 19 19 20 21 21 22
12 13 10 9 9 12 12 12 13 12 12 13 12 12 12 11 11 10 10 10 10 9 9 8 8 8 8 8 9 9 10 10 11 10 11 10 9 9 10 10 10 8 8 9 9 8 9 9 10 10 10 10 10 9 9 9 9 9 9 10 9 9 9 10 9 9 9 9 10 10 9 10 12 12 15 18 21 21 19 19 19 20 22 23 23
10 12 11 10 11 11 11 12 12 12 13 13 12 12 11 11 11 11 11 10 10 10 9 8 8 8 8 9 9 10 9 9 10 11 11 10 10 10 10 10 9 9 8 9 10 10 9 8 8 7 9 10 10 10 9 10 11 9 10 11 10 10 9 9 9 11 11 11 10 10 10 11 11 13 15 16 19 20 20 20 21 21 21 22 23
8 8 11 12 10 8 8 8 11 13 13 12 11 10 10 10 10 10 10 10 10 10 10 8 8 8 8 10 10 11 10 9 9 9 10 10 10 11 11 10 10 10 10 9 9 9 9 9 10 10 10 10 11 11 10 10 9 10 11 11 9 10 10 11 11 10 10 11 11 11 11 11 12 13 12 13 16 18 19 19 21 21 21 22 23
8 8 11 14 12 9 8 8 10 13 12 13 12 11 10 9 9 9 9 10 9 9 9 9 8 8 8 8 10 10 11 11 10 9 9 9 9 10 10 10 9 9 9 10 10 10 10 10 9 10 10 10 10 10 11 11 12 12 12 9 10 10 10 11 11 11 11 11 11 12 12 12 13 12 12 12 11 14 16 17 19 20 21 22 23
13 11 10 10 12 12 11 11 11 13 13 13 12 12 11 10 9 9 8 9 8 9 8 9 8 8 8 8 10 11 11 11 11 11 9 9 9 9 9 9 10 10 10 10 10 10 10 10 10 10 10 11 10 11 9 11 11 12 10 10 11 11 11 12 11 10 11 11 11 11 12 13 13 11 10 12 11 12 10 12 15 18 18 19 20
12 12 11 11 12 12 12 13 14 14 14 14 13 11 10 10 10 9 9 9 9 8 9 9 9 9 8 9 10 11 12 12 12 12 10 10 9 9 8 9 9 10 10 10 10 10 10 10 10 10 10 11 10 12 11 11 11 11 11 11 11 11 12 12 12 12 11 10 12 12 13 13 12 11 11 12 10 10 10 10 12 14 15 17 19
11 12 12 12 12 11 11 12 12 12 11 11 11 11 10 9 8 8 9 9 11 11 10 10 11 9 10 10 11 11 11 13 13 12 11 10 10 9 9 9 10 10 10 10 10 10 10 10 11 10 10 11 10 11 11 10 10 10 10 11 11 10 11 10 10 9 11 12 12 13 13 12 11 11 10 9 9 9 9 8 10 14 15 15 16
10 12 12 12 10 10 10 11 12 11 11 11 10 10 10 9 8 9 10 11 10 11 10 10 10 10 11 11 12 12 12 13 13 13 12 11 10 10 10 11 10 10 10 11 11 11 11 11 12 11 10 11 11 10 10 10 10 11 12 13 13 14 12 12 11 11 11 12 11 10 11 11 10 10 9 9 8 8 8 7 7 6 7 15 16
10 10 12 11 12 11 10 10 11 11 10 9 8 8 8 9 9 9 10 11 11 10 10 10 10 10 11 12 13 12 12 12 13 13 13 12 11 11 11 10 10 10 11 11 11 11 12 13 14 13 12 10 10 11 10 10 12 13 11 13 13 14 15 13 13 12 12 12 11 9 9 9 8 8 8 8 8 8 7 7 7 6 7 8 10
10 11 11 12 13 12 11 13 10 12 10 10 10 10 10 9 9 10 11 10 10 10 10 10 10 10 11 12 12 12 12 13 13 13 13 11 11 10 10 10 10 11 11 12 12 12 11 11 10 9 11 12 11 10 10 9 10 12 11 12 12 12 13 12 13 12 11 10 9 8 8 7 7 8 7 7 7 7 6 6 6 7 7 7 7
10 10 12 13 12 13 13 11 9 11 12 12 10 10 10 11 10 10 9 8 9 10 10 9 10 9 11 11 12 12 13 12 12 13 12 12 12 11 11 11 11 11 11 12 11 9 11 11 10 10 10 11 11 10 9 7 8 9 9 10 9 10 12 12 11 11 9 8 7 7 7 7 8 8 7 6 7 6 6 6 6 7 7 7 8
9 9 11 10 10 11 11 10 10 10 11 12 10 11 11 11 11 7 7 6 6 7 7 7 8 9 10 12 12 12 12 12 12 12 11 12 13 11 11 10 11 11 10 11 11 13 11 12 13 11 10 10 10 9 10 9 9 7 8 9 10 8 1 4 6 6 6 6 6 8 6 7 6 6 5 5 5 5 5 6 7 7 8 8 8
7 8 10 11 8 9 10 10 10 11 10 11 12 11 9 9 9 7 4 5 5 5 7 7 8 10 12 11 11 12 12 11 11 11 12 12 13 12 11 11 11 11 11 11 11 12 11 11 11 12 11 10 10 10 9 10 10 6 6 6 6 5 10 1 1 3 6 7 6 5 4 5 5 4 5 6 6 5 6 6 8 8 8 9 9
9 9 9 7 6 9 10 10 10 11 10 10 11 10 7 7 7 6 5 4 5 5 6 8 10 11 11 11 13 12 11 11 11 12 12 12 12 12 11 10 10 10 10 11 11 11 11 11 12 12 12 11 10 9 8 9 11 10 9 6 7 7 7 6 9 8 4 4 5 5 4 5 5 5 5 6 6 6 7 8 9 8 9 9 9
9 9 8 6 6 8 9 9 8 9 10 11 11 10 10 9 8 8 8 9 9 9 10 11 10 10 11 9 8 10 11 10 10 11 13 11 11 12 12 11 10 10 10 10 10 10 11 11 11 11 12 12 11 10 10 8 9 10 12 11 9 8 8 7 8 6 2 8 10 9 7 6 6 7 6 7 8 8 8 9 9 9 9 9 9
9 6 5 7 9 9 8 8 9 9 9 10 11 10 10 10 12 11 10 10 10 9 9 8 7 7 6 8 8 8 10 11 11 11 11 12 11 11 12 12 12 11 10 10 10 11 10 10 10 11 11 10 10 11 11 9 8 10 10 11 13 11 11 9 8 8 13 3 5 6 6 7 8 9 8 9 10 9 9 8 9 9 9 9 9
6 5 6 7 9 10 10 10 9 9 8 8 10 11 11 10 11 12 10 10 11 10 8 8 7 6 7 8 8 8 9 10 10 11 11 11 11 11 11 11 12 12 10 11 11 10 9 9 10 11 10 10 10 11 11 10 9 8 8 11 12 12 13 13 13 10 11 14 9 4 6 10 9 8 8 10 11 11 11 10 9 9 8 8 8
4 6 7 7 8 8 9 10 11 11 10 12 11 12 11 11 11 10 10 10 11 10 7 6 7 7 9 8 8 8 8 10 10 10 10 11 10 10 10 10 11 11 9 10 12 11 11 11 10 10 10 11 11 11 11 10 9 10 8 9 10 11 10 11 11 10 10 12 15 13 10 4 5 6 7 10 10 10 10 10 10 10 9 9 8
5 6 7 7 7 8 9 11 12 10 10 12 12 13 13 11 10 12 13 11 9 9 8 8 8 8 9 9 8 8 7 7 9 10 10 10 10 10 10 10 10 10 9 10 11 12 12 11 11 11 10 11 10 10 12 11 10 10 10 9 7 6 9 10 9 11 11 13 15 13 11 12 11 9 7 9 10 10 10 9 10 10 9 9 8
3 5 6 7 7 8 9 11 12 10 9 10 12 13 12 12 12 12 14 13 12 9 8 9 9 9 9 9 8 7 7 7 7 7 9 9 9 9 9 10 9 9 9 9 9 10 10 11 11 12 12 12 11 11 10 12 10 10 10 9 9 8 8 8 8 7 9 8 8 11 12 9 10 13 10 9 9 11 11 10 9 8 8 8 8
Wind_Direction
163 157 150 152 159 153 151 148 146 149 147 138 138 135 134 126 126 128 133 133 138 133 131 131 124 122 119 118 119 122 121 115 108 96 101 102 94 103 107 100 107 98 98 104 112 94 85 82 82 76 72 76 77 76 77 74 71 71 76 80 80 79 69 61 57 60 77 87 90 89 93 89 85 83 81 76 73 65 42 19 53 65 69 70 65
159 156 150 154 155 154 152 149 149 148 147 149 147 142 142 130 124 130 132 134 136 136 136 130 128 128 124 122 125 127 127 123 116 114 117 118 102 95 88 94 95 98 81 81 80 86 84 81 83 85 83 80 77 76 73 74 75 78 79 80 78 78 73 63 62 65 73 77 86 90 83 81 82 86 86 83 75 64 42 43 42 82 75 73 64
151 153 151 152 151 153 153 148 148 149 148 145 148 152 151 138 130 125 130 132 137 145 138 134 136 133 130 128 131 132 127 127 122 122 113 108 113 119 117 111 97 90 87 88 84 80 89 93 94 93 86 82 79 76 77 74 74 76 78 79 81 82 74 72 67 62 63 71 83 91 90 87 83 81 80 79 80 73 51 59 67 75 81 81 81
150 155 153 145 149 154 153 149 147 149 153 153 153 158 151 145 138 134 137 138 141 143 145 144 148 144 136 134 134 133 131 127 126 122 106 113 120 105 110 112 111 104 97 91 96 98 95 90 86 87 83 78 83 85 84 80 82 83 83 83 85 85 79 72 70 67 61 56 76 109 100 96 87 82 80 79 81 81 73 69 67 65 74 74 74
152 153 151 152 158 156 158 153 150 150 152 158 154 153 153 152 145 138 136 148 138 148 148 155 154 147 143 137 134 134 135 134 133 127 127 127 123 117 101 110 117 113 114 118 110 105 96 94 93 88 87 90 85 84 85 86 87 93 89 91 84 82 78 71 69 69 62 36 323 164 80 87 90 82 84 85 86 88 86 81 73 77 76 75 74
152 154 153 158 157 157 164 158 155 151 154 158 161 158 158 153 148 145 144 151 148 155 159 161 162 154 150 143 137 137 137 138 133 133 134 133 130 126 119 116 105 111 115 106 102 105 105 101 100 90 88 90 91 92 97 96 96 94 93 90 88 82 79 75 71 69 70 76 233 100 102 85 82 92 88 86 77 65 81 77 73 69 74 74 74
153 156 154 155 157 157 167 161 159 159 159 161 167 167 162 161 163 160 153 155 172 161 163 160 167 159 153 144 139 141 141 142 138 138 139 128 122 117 119 115 112 109 115 119 108 105 108 104 101 98 97 97 94 100 100 100 98 97 96 92 92 86 83 79 73 47 327 208 80 84 85 86 86 93 92 90 94 87 78 75 72 69 62 59 49
154 157 157 157 166 150 166 162 169 163 162 162 168 169 168 168 173 168 165 169 182 160 166 165 168 163 156 150 147 147 149 147 146 143 139 130 133 139 127 121 118 126 121 121 123 114 108 111 107 105 101 96 93 96 103 110 107 101 102 99 93 91 82 81 75 47 295 90 86 75 93 91 88 82 91 82 73 69 68 66 69 77 68 58 21
160 159 158 161 157 150 164 171 169 165 165 167 172 173 170 170 171 171 170 177 190 162 165 175 162 178 164 156 152 154 153 149 146 144 143 141 135 132 125 125 122 127 132 128 123 120 116 119 114 103 103 97 90 93 105 126 128 118 107 105 99 91 85 69 59 200 185 97 106 103 94 104 107 109 84 83 81 79 69 62 124 112 100 50 342
161 161 156 167 163 148 169 170 174 168 168 173 174 178 179 178 170 173 171 179 186 167 179 175 172 180 167 161 160 158 155 151 149 149 148 146 144 136 133 127 131 130 133 134 127 126 127 118 122 114 107 98 92 89 101 139 143 130 125 114 108 92 82 72 61 325 88 108 98 101 47 339 102 72 79 93 91 79 71 29 21 13 18 48 347
162 159 161 166 158 149 165 165 169 171 173 178 181 186 188 176 169 173 173 181 191 181 183 184 179 177 170 168 164 160 158 154 156 153 152 152 148 143 139 139 140 141 136 138 137 133 135 132 124 121 106 106 106 107 111 138 150 143 133 130 122 110 88 95 249 122 91 104 96 103 107 293 70 53 70 71 97 100 90 56 298 300 232 319 288
165 162 163 166 141 149 155 155 164 173 177 183 189 186 173 168 169 175 179 183 191 184 181 190 182 179 178 174 168 161 158 161 159 160 158 159 156 153 149 145 142 138 136 137 145 147 143 142 134 125 127 114 121 114 126 139 146 149 140 139 127 120 112 349 279 92 128 133 113 27 83 199 51 68 61 31 16 56 171 225 77 213 249 266 276
168 167 166 163 164 147 156 158 172 180 183 191 180 185 171 172 174 181 185 184 183 184 182 194 191 184 184 178 173 165 165 168 167 166 164 163 159 155 154 152 153 147 147 145 150 157 151 147 144 138 141 134 132 125 128 142 148 145 146 143 139 124 128 255 168 167 163 188 202 223 164 182 255 41 18 337 345 349 333 327 65 48 60 69 258
167 171 170 171 167 154 159 166 177 184 190 210 172 188 174 178 184 190 189 189 190 191 189 194 199 192 189 183 180 173 171 172 172 171 169 166 166 163 163 161 159 152 152 151 150 162 164 158 156 155 154 155 146 138 131 140 149 149 148 151 145 144 155 212 251 182 136 222 256 288 250 253 43 10 326 324 301 314 355 0 31 23 14 78 179
174 176 173 174 170 171 158 173 181 186 194 206 171 173 174 183 192 195 194 197 196 195 195 193 199 198 193 186 190 178 177 176 175 175 172 171 171 169 168 167 165 166 162 157 160 158 171 170 167 168 169 171 167 155 142 135 141 146 158 155 147 160 234 247 217 240 210 220 235 228 241 245 50 309 324 330 319 333 341 339 291 267 267 254 274
178 183 175 179 177 178 178 179 188 188 194 200 185 174 172 185 200 197 202 197 201 200 201 204 203 203 199 193 192 185 180 180 179 172 170 172 176 175 174 175 172 171 172 175 168 163 173 179 178 179 182 181 179 167 155 150 137 130 125 131 137 171 237 301 246 263 245 238 247 248 249 248 15 303 307 309 298 306 296 263 272 271 273 275 269
179 188 186 188 187 187 189 188 188 191 192 200 197 178 183 187 202 191 203 213 202 205 205 211 210 210 203 194 197 194 183 183 180 176 173 177 182 177 178 182 182 183 183 184 173 174 178 187 182 179 189 191 189 179 174 168 149 136 124 121 79 129 212 273 272 253 284 280 281 283 269 257 138 289 287 294 288 273 284 289 276 275 275 276 278
184 188 194 195 195 198 197 196 192 193 198 195 205 194 194 194 184 189 196 214 206 195 197 216 215 211 204 192 198 205 199 186 184 179 183 184 182 177 178 188 186 185 189 185 187 187 185 191 193 185 188 196 197 190 187 182 166 150 150 140 134 117 193 279 267 271 265 275 261 253 261 118 295 279 280 282 285 279 275 276 275 267 265 265 263
191 194 198 200 201 201 202 200 197 202 204 204 204 193 199 205 189 186 194 208 210 190 183 204 217 207 192 193 203 207 209 200 187 184 188 188 187 179 187 190 196 192 191 194 198 198 199 201 198 202 198 199 204 200 191 172 169 167 163 163 176 216 280 256 250 271 270 254 250 253 255 56 275 274 274 277 276 275 279 281 282 285 280 285 277
194 197 201 205 206 205 206 204 203 204 204 206 207 205 186 203 195 196 198 199 210 199 195 193 202 199 181 196 208 219 210 208 185 196 190 195 191 213 175 205 207 201 201 201 204 207 208 210 210 212 211 211 208 212 192 161 169 174 167 165 155 230 236 243 258 259 260 263 266 267 241 256 271 273 271 268 268 275 278 280 283 285 286 279 276
197 202 204 206 207 211 210 209 208 209 208 209 213 212 192 177 187 213 239 212 220 201 203 217 215 192 198 193 208 224 221 219 197 222 170 204 197 206 182 201 217 229 219 217 215 211 210 212 217 219 223 224 217 197 168 155 119 103 98 66 345 256 267 282 277 267 261 265 253 255 89 262 269 269 268 266 266 268 274 278 282 285 284 285 282
200 201 207 207 208 211 213 213 211 210 211 212 214 210 206 181 212 209 217 213 219 235 223 231 207 227 182 212 223 225 231 226 229 223 219 212 187 193 198 209 221 233 251 276 244 223 220 227 226 227 229 229 188 233 194 155 138 126 130 174 247 264 272 277 280 269 265 261 258 260 158 264 268 267 267 266 266 267 268 269 275 282 286 283 280
207 204 206 207 208 209 213 214 215 212 212 213 212 218 220 212 215 220 224 228 230 221 229 229 237 231 223 225 231 234 235 237 238 256 265 31 319 145 202 234 245 259 276 295 304 318 263 244 247 329 21 171 233 245 249 249 215 159 187 221 268 259 262 265 266 267 264 266 267 247 239 261 266 267 266 266 267 268 269 273 276 279 281 281 281
209 206 206 208 209 211 213 215 216 213 213 214 216 221 223 226 225 219 222 227 228 228 229 234 231 235 233 232 230 238 241 241 234 143 257 240 214 169 198 241 235 232 247 250 207 208 244 200 198 211 212 241 252 256 263 258 257 266 264 254 249 251 257 260 262 265 269 264 262 257 250 256 260 261 263 264 265 265 266 266 267 268 271 273 276
211 210 213 212 210 212 213 215 216 217 215 216 213 221 220 222 226 229 228 229 230 230 231 228 231 233 234 231 230 235 237 240 237 229 232 236 243 241 216 230 234 240 173 248 251 230 217 248 228 208 246 250 253 256 262 262 266 266 267 269 266 267 265 266 264 263 264 267 264 244 257 258 256 255 256 259 261 262 262 263 263 264 267 271 273
208 215 215 214 212 213 214 214 215 217 216 220 217 219 217 223 224 226 229 231 231 233 234 233 233 231 232 234 230 233 238 239 242 246 242 236 240 242 247 246 247 246 239 248 253 245 254 255 251 261 264 262 264 267 262 265 269 266 267 270 270 268 266 268 269 266 269 269 261 251 261 263 260 257 255 255 257 260 262 264 264 266 266 265 265
205 217 215 216 214 214 214 214 216 216 218 219 220 223 220 224 226 224 226 230 232 234 232 235 236 236 233 230 233 235 237 239 238 240 243 244 244 245 245 247 246 247 249 256 252 252 255 256 260 259 257 256 261 262 258 252 256 266 271 271 272 272 272 269 270 269 271 274 275 244 251 263 264 261 258 255 255 257 258 260 260 262 263 264 265
205 210 212 211 212 215 212 212 217 216 216 216 219 221 223 222 223 222 225 233 234 235 234 233 235 232 232 234 230 236 236 238 242 241 242 244 246 247 248 248 249 247 246 245 254 260 255 254 259 264 267 265 260 256 257 255 256 252 257 263 265 263 258 264 273 276 273 275 278 266 229 254 261 262 260 259 259 259 259 259 259 260 260 260 261
209 206 205 210 209 208 207 212 215 216 218 215 219 222 223 222 220 222 227 226 233 235 234 237 232 230 231 232 233 234 235 238 240 241 243 243 247 247 246 247 251 251 243 241 242 250 254 257 255 255 257 260 259 261 264 261 258 256 260 257 252 254 257 260 262 269 276 275 275 277 256 251 259 260 258 257 257 259 261 262 263 262 261 260 259
213 208 206 209 207 200 202 205 209 214 217 219 221 221 221 221 220 221 227 226 231 236 237 235 234 227 226 226 229 233 235 237 238 242 243 242 242 243 243 247 248 250 248 247 241 243 246 249 249 253 259 261 262 256 257 267 265 262 252 241 244 256 259 255 255 261 267 273 276 279 266 245 253 256 259 257 257 256 258 260 262 262 263 263 262
214 217 212 208 201 199 202 204 204 206 211 220 222 223 221 221 220 221 224 226 232 232 233 235 234 231 230 224 228 231 235 237 240 242 243 244 245 246 247 246 249 251 251 253 251 248 253 258 256 255 258 264 269 272 274 271 264 257 251 251 266 265 250 254 259 256 254 256 262 271 276 264 242 246 257 260 257 256 257 260 261 261 262 263 264
215 219 215 209 204 203 202 204 204 201 209 215 220 224 224 224 222 223 226 228 228 232 232 231 232 231 228 226 227 229 230 237 238 241 244 245 245 246 248 248 248 245 244 245 247 243 239 251 259 264 265 267 265 262 259 264 267 266 262 264 266 258 255 259 258 255 258 260 268 272 271 274 270 243 247 255 258 259 258 259 260 264 265 266 264
218 219 215 210 211 207 209 208 205 204 206 212 214 221 225 226 224 225 229 227 227 230 231 229 230 230 229 227 230 231 229 233 235 237 240 244 245 245 246 246 246 247 247 247 249 254 251 240 235 235 244 257 261 265 269 269 270 266 265 268 270 269 264 256 255 271 270 268 269 274 276 276 276 271 245 238 248 252 255 258 262 264 265 268 269
212 212 212 214 211 209 204 208 207 208 207 211 214 214 219 220 221 223 225 222 227 229 232 230 227 229 227 226 227 230 230 230 233 234 235 239 241 242 243 244 242 246 248 249 251 250 252 252 255 254 252 256 261 264 264 262 258 259 267 272 267 263 263 263 268 268 271 271 275 275 274 275 277 278 272 240 227 245 248 251 259 263 265 268 270
215 211 207 215 210 207 201 207 201 208 206 213 214 216 216 215 213 216 216 211 217 223 225 227 227 224 224 224 222 229 230 232 230 232 232 235 239 239 240 241 240 240 240 242 245 250 251 255 254 254 258 257 257 258 260 263 266 266 269 268 262 259 256 263 269 271 269 269 271 274 270 272 275 273 268 275 257 233 239 247 254 263 267 268 270
215 215 214 212 215 212 205 211 208 210 212 211 212 214 214 212 212 210 213 205 213 219 220 227 226 225 224 227 223 229 232 231 233 234 237 234 235 238 236 237 238 239 240 243 245 247 249 251 249 251 257 256 257 259 258 262 263 265 264 265 269 271 273 275 272 265 263 269 269 269 271 273 271 268 270 275 276 278 264 249 252 264 269 270 272
213 214 213 208 214 213 210 212 215 211 215 214 213 215 217 220 219 217 218 215 218 222 224 228 227 225 227 229 228 229 229 230 230 231 234 235 236 237 236 235 235 238 240 241 241 243 246 248 249 246 248 257 257 260 262 265 267 265 263 262 263 269 271 271 271 274 273 260 264 269 271 271 272 267 270 270 270 273 260 243 241 253 261 265 269
217 216 215 212 213 211 210 211 215 216 214 215 212 212 217 219 221 221 219 223 228 237 232 229 232 226 230 232 229 228 226 227 228 229 231 234 236 235 235 234 233 235 237 238 240 243 243 244 250 247 246 251 256 258 263 265 269 273 273 271 267 262 265 266 266 258 259 263 264 267 269 271 272 273 273 270 274 271 275 267 237 235 243 251 254
218 217 216 217 214 211 210 209 210 211 211 211 209 211 214 218 222 227 230 232 230 228 225 224 223 226 228 227 226 227 225 227 225 224 228 230 230 233 236 235 233 235 236 236 240 241 242 244 247 251 247 249 255 257 262 269 271 273 274 275 278 276 274 269 270 269 265 262 260 261 272 272 269 267 265 266 265 264 268 273 283 280 242 223 236
220 220 217 213 214 213 212 213 207 208 210 208 203 206 208 213 218 221 230 228 225 223 219 223 222 222 222 224 227 225 225 224 225 223 225 229 233 233 234 233 233 234 236 237 239 238 239 242 245 249 253 254 249 254 255 260 267 273 275 275 272 273 271 268 267 264 265 267 267 261 260 261 261 260 261 264 265 266 268 273 275 268 269 262 235
221 220 216 215 213 211 206 213 203 200 202 200 202 200 202 206 214 219 223 217 218 217 218 215 219 222 219 219 222 224 225 225 223 222 226 226 230 234 232 231 230 233 236 237 235 237 238 242 247 245 244 254 258 253 250 250 266 271 274 274 275 268 263 258 259 259 257 263 264 262 260 256 259 263 261 263 266 270 272 272 265 264 270 274 258
223 215 217 218 215 213 214 212 197 198 203 204 200 201 203 201 199 209 212 214 207 207 213 211 214 216 218 219 221 222 221 220 221 222 225 225 227 229 231 233 231 234 235 238 236 235 238 239 240 250 239 243 252 249 251 239 250 258 286 295 290 285 263 254 252 251 246 260 262 261 250 253 266 276 279 270 261 249 252 254 259 264 265 268 270
229 210 222 223 218 214 217 210 204 203 206 206 204 205 204 207 207 209 201 207 214 217 216 213 209 213 216 220 221 221 218 217 214 218 223 226 227 227 229 232 234 235 237 237 235 236 234 236 237 241 249 244 249 249 246 228 253 262 274 295 295 311 210 238 226 250 255 236 243 248 255 266 262 253 252 253 252 247 240 251 260 258 262 265 269
224 231 224 221 217 217 213 207 210 209 209 205 207 213 209 209 214 221 209 218 234 217 221 220 217 215 222 219 221 220 217 217 210 215 224 227 226 227 230 231 232 232 235 238 236 235 232 232 232 235 237 250 246 249 238 234 232 241 271 240 282 311 300 237 177 271 234 253 248 240 231 235 239 224 237 249 250 241 251 259 254 253 256 261 266
223 219 225 215 213 217 213 208 212 212 212 207 201 208 206 202 207 218 230 233 241 236 226 226 218 220 225 219 221 216 216 216 215 217 221 224 226 229 231 233 235 232 233 239 242 240 236 233 231 234 232 234 247 251 246 224 229 226 240 271 271 261 242 287 321 297 251 215 201 208 202 226 244 241 241 241 234 244 257 259 254 254 256 261 262
228 226 223 226 223 228 225 216 217 217 215 211 201 197 205 204 200 205 211 217 229 215 216 218 208 211 217 219 217 211 211 214 214 216 220 222 223 230 232 235 236 236 234 237 242 243 240 236 234 234 238 235 242 252 254 229 224 224 225 233 254 274 304 319 333 295 242 273 275 265 252 244 235 234 228 233 239 250 253 258 257 259 261 262 263
227 212 196 218 222 226 223 215 219 221 215 210 193 191 203 206 207 209 211 210 217 223 221 221 219 218 214 211 209 206 208 210 214 215 216 216 220 223 225 234 240 240 236 238 240 240 240 238 235 233 234 235 230 240 245 250 234 227 227 229 240 247 258 277 274 295 299 293 238 247 250 243 235 233 236 238 246 253 258 257 260 260 262 263 264
221 190 203 209 215 219 215 212 214 218 214 201 192 192 200 204 207 212 216 220 222 230 213 216 220 227 217 213 213 215 208 209 214 214 215 215 215 218 218 225 236 236 237 238 240 241 242 240 235 236 234 234 232 236 248 246 243 247 221 229 236 244 246 250 254 262 274 286 276 203 230 254 242 228 231 245 248 249 256 262 263 265 265 264 265
199 211 209 211 211 216 218 215 216 217 219 202 199 198 202 206 205 209 216 224 228 233 234 215 224 219 227 224 217 218 211 209 213 215 213 214 212 215 215 219 223 227 225 236 246 243 244 247 243 235 236 237 236 238 243 246 243 245 240 229 234 240 241 240 251 246 256 275 280 279 283 249 233 242 226 240 244 248 251 256 259 261 269 272 270
215 215 217 216 213 213 215 214 218 218 215 206 201 203 202 206 209 212 216 221 219 228 227 222 218 218 222 221 212 213 215 212 210 214 216 214 216 214 218 221 223 227 227 228 237 245 246 246 246 246 236 237 239 236 238 245 247 249 246 250 237 237 239 245 241 245 246 245 264 284 282 286 286 278 251 240 246 246 249 250 253 251 254 262 269
195 223 221 216 214 214 215 216 220 220 214 209 201 204 204 206 214 214 214 219 219 218 221 223 220 217 223 225 220 216 216 217 209 209 213 213 214 217 218 221 224 224 224 227 229 236 246 244 246 244 241 237 237 239 237 241 249 253 252 248 246 238 246 244 242 234 235 244 254 265 278 272 281 291 285 283 273 274 276 273 261 254 248 252 258